Weather in Tripoli

Lebanon     34˚26′03″N   35˚50′13″E
temp.,
°C
wind,
m/s
gust,
m/s
humid.,
%
clouds,
%
prec.,
mm/h
press.,
hPa
HPBL,
m
27 november, fri
fri2723:00+17˚ne43660 0.0 1016473
02:00+17˚ne21670 0.0 1016444
05:00+18˚ese43700 2.3 1017426
08:00+18˚ese346918 5.3 1018475
11:00+18˚ene546467 1.1 1018335
14:00+19˚wsw335983 1.5 1017505
17:00+20˚sw3257100 0.8 1018596
20:00+20˚ene435665 1.2 1019614
28 november, sat
sat2823:00+19˚ene55631 0.0 1020274
02:00+19˚ene556212 0.0 1019268
05:00+18˚ene666183 0.0 1019265
08:00+18˚ene766291 0.0 1020262
11:00+19˚ene665784 0.0 1019277
14:00+21˚ene655258 0.0 1018634
17:00+21˚ene8856100 0.0 1019534
20:00+19˚ene996379 0.0 1020299
29 november, sun
sun2923:00+19˚ene665933 0.0 1020273
02:00+19˚ene445732 0.0 1020245
05:00+19˚ne65620 0.0 1019293
08:00+19˚ene43590 0.0 1020210
11:00+19˚nne11560 0.0 1020214
14:00+20˚w23570 0.0 1018435
17:00+20˚nw11540 0.0 1018439
20:00+20˚e22540 0.0 1019466
30 november, mon
mon3023:00+20˚ese32600 0.0 1018391
02:00+20˚e22600 0.0 1018322
05:00+20˚e22580 0.0 1017271
08:00+20˚e225717 0.0 1018231
11:00+20˚e225234 0.0 1017451
14:00+20˚nnw125418 0.1 1015736
17:00+20˚nw11540 0.0 1016566
20:00+20˚e21550 0.0 1016624
1 december, tue
tue123:00+20˚ene33600 0.0 1015425
02:00+20˚ne44560 0.0 1014545
05:00+19˚ne55580 0.0 1014405
08:00+19˚ene66590 0.0 1015326
11:00+19˚ne555464 0.0 1014425
14:00+20˚n555782 0.0 1012784
17:00+21˚ne5549100 0.0 1013753
20:00+20˚ne665390 0.0 1013588